User: anonymous   Login
Location: Unspecified
(0.0000°N, 0.0000°E)
Time: 21:41:30
(UTC+02:00)
Language:

Cosmos 1437 - Orbit

View from above orbital plane
View from above orbital plane
View from above satellite
View from above satellite

Ground track
Ground track

The orbit data is extracted from the following two-line orbital elements,

1 13770U 83003A   18109.41679055  .00005305  00000-0  78003-4 0  9993
2 13770  81.1540 131.3260 0004537 249.0616 111.0149 15.55215758934065
Epoch (UTC): 19 April 2018 10:00:10
Eccentricity: 0.0004537
inclination: 81.1540°
perigee height: 398 km
apogee height: 404 km
right ascension of ascending node: 131.3260°
argument of perigee: 249.0616°
revolutions per day: 15.55215758
mean anomaly at epoch: 111.0149°
orbit number at epoch: 93406

The dashed part of the orbit path shows where the satellite is in the earth's shadow,  

DLR